Lexington, KY

10:24 AM EDT on June 22, 2017 (GMT -0400)
Blue Grass

Weather History for KLEX - November, 2011

Change the Weather History Date:

Sunday, November 13, 2011

  Actual Average Record
Temperature  
Mean Temperature 60 °F 48 °F  
Max Temperature 68 °F 57 °F 78 °F (1955)
Min Temperature 52 °F 38 °F 13 °F (1911)
Degree Days  
Heating Degree Days 5 18  
Month to date heating degree days 187 200  
Since 1 July heating degree days 588 526  
Cooling Degree Days 0 0  
Month to date cooling degree days 0 0  
Year to date cooling degree days 1305 1188  
Growing Degree Days 9 (Base 50)    
Moisture  
Dew Point 43 °F    
Average Humidity 52    
Maximum Humidity 65    
Minimum Humidity 38    
Precipitation  
Precipitation 0.00 in 0.11 in 1.59 in (1889)
Month to date precipitation 0.82 1.42  
Year to date precipitation 55.06 39.13  
Snow  
Snow 0.00 in 0.00 in 0.70 in (1995)
Month to date snowfall 0.0 0.0  
Since 1 July snowfall 0.0 0.0  
Since 1 September snowfall 0.0 0.0  
Snow Depth 0.00 in    
Sea Level Pressure  
Sea Level Pressure 29.88 in    
Wind  
Wind Speed 18 mph (SSW)    
Max Wind Speed 32 mph    
Max Gust Speed 40 mph    
Visibility 10 miles    
Events      
T = Trace of Precipitation, MM = Missing Value Source: NWS Daily Summary

Daily Weather History Graph

Daily Weather History Graph

Search for Another Location

Airport or City:

Trip Planner

Search our weather history database for the weather conditions in past years. The results will help you decide how hot, cold, wet, or windy it might be!

Date:

Astronomy

Nov. 13, 2011 Rise Set
Actual Time 7:16 AM EST 5:28 PM EST
Civil Twilight 6:48 AM EST 5:56 PM EST
Nautical Twilight 6:17 AM EST 6:27 PM EST
Astronomical Twilight 5:45 AM EST 6:58 PM EST
Moon 7:37 PM EST (11/13) 9:47 AM EST (11/13)
Length of Visible Light 11h 07m
Length of Day
10h 11m
Waning Gibbous, 93% of the Moon is Illuminated
Nov 13
Waning Gibbous
Nov 18
Last Quarter
Nov 25
New
Dec 2
First Quarter
Dec 10
Full

Hourly Weather History & Observations

Time (EST) Temp. Dew Point Humidity Pressure Visibility Wind Dir Wind Speed Gust Speed Precip Events Conditions
12:54 AM 53.1 °F 30.0 °F 41% 30.00 in 10.0 mi South 15.0 mph - N/A   Clear
1:54 AM 53.1 °F 28.9 °F 40% 29.98 in 10.0 mi South 17.3 mph - N/A   Clear
2:54 AM 53.6 °F 30.2 °F 41% 29.98 in 10.0 mi South 17.3 mph 24.2 mph N/A   Mostly Cloudy
3:54 AM 54.0 °F 33.1 °F 45% 29.96 in 10.0 mi South 13.8 mph 21.9 mph N/A   Overcast
4:54 AM 53.1 °F 33.1 °F 47% 29.96 in 10.0 mi South 16.1 mph - N/A   Mostly Cloudy
5:54 AM 52.0 °F 34.0 °F 50% 29.95 in 10.0 mi South 13.8 mph 21.9 mph N/A   Scattered Clouds
6:54 AM 53.1 °F 35.1 °F 50% 29.94 in 10.0 mi South 17.3 mph - N/A   Mostly Cloudy
7:54 AM 54.0 °F 37.9 °F 55% 29.94 in 10.0 mi South 17.3 mph - N/A   Mostly Cloudy
8:54 AM 55.9 °F 39.9 °F 55% 29.94 in 10.0 mi South 19.6 mph - N/A   Overcast
9:54 AM 57.9 °F 42.1 °F 56% 29.91 in 10.0 mi SSW 20.7 mph 29.9 mph N/A   Overcast
10:54 AM 60.1 °F 45.0 °F 57% 29.90 in 10.0 mi SSW 23.0 mph 28.8 mph N/A   Overcast
11:54 AM 62.1 °F 46.9 °F 58% 29.87 in 10.0 mi SSW 25.3 mph 31.1 mph N/A   Mostly Cloudy
12:54 PM 64.9 °F 50.0 °F 58% 29.84 in 10.0 mi SSW 25.3 mph 35.7 mph N/A   Mostly Cloudy
1:54 PM 66.9 °F 50.0 °F 54% 29.81 in 10.0 mi SSW 19.6 mph 38.0 mph N/A   Clear
2:54 PM 66.0 °F 50.0 °F 56% 29.80 in 10.0 mi South 16.1 mph 24.2 mph N/A   Overcast
3:54 PM 66.9 °F 51.1 °F 57% 29.79 in 10.0 mi SSW 23.0 mph 35.7 mph N/A   Overcast
4:54 PM 66.0 °F 50.0 °F 56% 29.78 in 10.0 mi SSW 21.9 mph 31.1 mph N/A   Clear
5:54 PM 64.0 °F 50.0 °F 60% 29.81 in 10.0 mi South 16.1 mph - N/A   Clear
6:54 PM 64.0 °F 50.0 °F 60% 29.83 in 10.0 mi South 16.1 mph - N/A   Mostly Cloudy
7:54 PM 64.0 °F 50.0 °F 60% 29.84 in 10.0 mi South 18.4 mph 25.3 mph N/A   Scattered Clouds
8:54 PM 61.0 °F 48.0 °F 62% 29.83 in 10.0 mi South 16.1 mph 24.2 mph N/A   Clear
9:54 PM 61.0 °F 48.0 °F 62% 29.84 in 10.0 mi South 15.0 mph - N/A   Clear
10:54 PM 63.0 °F 50.0 °F 63% 29.85 in 10.0 mi SSW 17.3 mph 24.2 mph N/A   Clear
11:54 PM 62.1 °F 50.0 °F 65% 29.86 in 10.0 mi South 12.7 mph - N/A   Clear